WAJJ

Details ICAO WAJJ (DJJ)
Name Jayapura Sentani
Region Indonesia
Timezone Asia/Jayapura (UTC+9.0)
Plans Departing 86
Arriving 96
Stats Elevation 289 ft / 88 m (AMSL)
Location -2.576982° 140.516471°
Runways 1
Magnetic Variation 3.238° E
Sunrise 2018-05-25 20:36:46 UTC / 2018-05-26 05:36:46 Local
Sunset 2018-05-26 08:35:59 UTC / 2018-05-26 17:35:59 Local
Advertisement - Login to hide

Runways

ID Width Length Bearing (true) Bearing (mag) Surface Threshold Offset Overrun Length
12 148 ft / 45 m 7,172 ft / 2,186 m 126.72° 123.48° Asphalt 0 ft / 0 m 197 ft / 60 m
30 148 ft / 45 m 7,172 ft / 2,186 m 306.72° 303.48° Asphalt 0 ft / 0 m 197 ft / 60 m

Approach Navaids

Runway Type Ident Frequency Range Bearing (true) Bearing (mag) Slope Elevation
30 Localiser IJPA 110.30 MHz 18 nm / 33 km 306.72° 303.48° - 289 ft / 88 m (AMSL)
30 Glidescope IJPA 110.30 MHz 10 nm / 19 km 306.72° 303.48° 3.00° 289 ft / 88 m (AMSL)
30 DME IJPA 110.30 MHz 18 nm / 33 km - - - 289 ft / 88 m (AMSL)

Map

Weather


0- 5 10 15 20 25 30 35+ Temperature / ° C

Clouds and Precipitation
Forecast for 2018-05-25 18:00 UTC. Updated 20 minutes ago

Ground ~20,000 ft ~40,000 ft Winds

METAR

WAJJ 251700Z 13003KT 9999 FEW012 SCT020 26/24 Q1007 NOSIG

TAF

Not found

Frequencies

Recorded 126.25 MHz ATIS
Tower 118.10 MHz TWR
Recorded 128.80 MHz ATIS
Approach 119.10 MHz JAYAPURA APP
Warning: Do not use this data for real-world aviation or navigation. No guarantee of current accuracy is given.